contact:dominique.lefevre@mio.osupytheas.fr, maurice.libes@osupytheas.fr, didier.mallarino@osupytheas.fr
Project:EMSO http://www.emso-fr.org/EMSO-France
Depth: 2436.0 m
Title:EMSO Ligure Ouest : Data MII capteur CSTAR
DateTime,Latitude,Longitude,Instrument_Serial,Reference_Counts,Signal_Counts,Corrected_Signal_raw_counts,Calculated_Beam_c_inverse_meters,Internal_thermistor_counts
DateTime,Latitude,Longitude,Instrument_Serial,Reference_Counts,Signal_Counts,Corrected_Signal_raw_counts,Calculated_Beam_c_inverse_meters,Internal_thermistor_counts
2019-06-06T00:02:50,42.805,6.029,CST-1368DR,9183,12851,15551,0.017,551
2019-06-06T00:05:51,42.805,6.029,CST-1368DR,9183,12851,15551,0.017,551
2019-06-06T00:08:53,42.805,6.029,CST-1368DR,9183,12852,15553,0.016,551
2019-06-06T00:11:54,42.805,6.029,CST-1368DR,9183,12852,15553,0.016,551
2019-06-06T00:14:56,42.805,6.029,CST-1368DR,9183,12850,15550,0.017,550
2019-06-06T00:17:57,42.805,6.029,CST-1368DR,9183,12850,15550,0.017,551
2019-06-06T00:20:58,42.805,6.029,CST-1368DR,9183,12852,15552,0.016,551
2019-06-06T00:24:00,42.805,6.029,CST-1368DR,9183,12850,15551,0.017,551
2019-06-06T00:27:01,42.805,6.029,CST-1368DR,9183,12849,15549,0.017,551
2019-06-06T00:30:03,42.805,6.029,CST-1368DR,9183,12851,15551,0.017,551
2019-06-06T00:33:04,42.805,6.029,CST-1368DR,9183,12852,15553,0.016,551
2019-06-06T00:36:05,42.805,6.029,CST-1368DR,9183,12851,15552,0.016,551
2019-06-06T00:39:07,42.805,6.029,CST-1368DR,9183,12845,15545,0.018,551
2019-06-06T00:42:08,42.805,6.029,CST-1368DR,9183,12851,15552,0.016,551
2019-06-06T00:45:10,42.805,6.029,CST-1368DR,9183,12852,15552,0.016,551
2019-06-06T00:48:11,42.805,6.029,CST-1368DR,9183,12848,15548,0.017,551
2019-06-06T00:51:12,42.805,6.029,CST-1368DR,9183,12851,15551,0.017,551
2019-06-06T00:54:14,42.805,6.029,CST-1368DR,9183,12851,15551,0.017,551
2019-06-06T00:57:15,42.805,6.029,CST-1368DR,9183,12849,15549,0.017,551
2019-06-06T01:00:17,42.805,6.029,CST-1368DR,9182,12850,15551,0.017,551
2019-06-06T01:03:18,42.805,6.029,CST-1368DR,9182,12849,15551,0.017,551
2019-06-06T01:06:19,42.805,6.029,CST-1368DR,9182,12849,15551,0.017,551
2019-06-06T01:09:21,42.805,6.029,CST-1368DR,9182,12850,15552,0.016,551
2019-06-06T01:12:22,42.805,6.029,CST-1368DR,9182,12848,15549,0.017,551
2019-06-06T01:15:24,42.805,6.029,CST-1368DR,9182,12849,15550,0.017,551
2019-06-06T01:18:25,42.805,6.029,CST-1368DR,9182,12849,15550,0.017,550
2019-06-06T01:21:27,42.805,6.029,CST-1368DR,9182,12848,15550,0.017,551
2019-06-06T01:24:28,42.805,6.029,CST-1368DR,9182,12847,15548,0.017,551
2019-06-06T01:27:29,42.805,6.029,CST-1368DR,9182,12848,15549,0.017,551
2019-06-06T01:30:31,42.805,6.029,CST-1368DR,9182,12851,15553,0.016,551
2019-06-06T01:33:32,42.805,6.029,CST-1368DR,9182,12848,15549,0.017,551
2019-06-06T01:36:34,42.805,6.029,CST-1368DR,9182,12851,15553,0.016,550
2019-06-06T01:39:35,42.805,6.029,CST-1368DR,9182,12849,15551,0.017,551
2019-06-06T01:42:36,42.805,6.029,CST-1368DR,9182,12850,15552,0.016,551
2019-06-06T01:45:38,42.805,6.029,CST-1368DR,9182,12850,15552,0.016,551
2019-06-06T01:48:39,42.805,6.029,CST-1368DR,9182,12850,15552,0.016,551
2019-06-06T01:51:41,42.805,6.029,CST-1368DR,9182,12849,15550,0.017,551
2019-06-06T01:54:42,42.805,6.029,CST-1368DR,9182,12849,15551,0.017,551
2019-06-06T01:57:43,42.805,6.029,CST-1368DR,9182,12842,15542,0.019,551
2019-06-06T02:00:45,42.805,6.029,CST-1368DR,9182,12850,15552,0.016,551
2019-06-06T02:03:46,42.805,6.029,CST-1368DR,9182,12849,15550,0.017,550
2019-06-06T02:06:48,42.805,6.029,CST-1368DR,9182,12849,15551,0.017,551
2019-06-06T02:09:49,42.805,6.029,CST-1368DR,9182,12845,15546,0.018,551
2019-06-06T02:12:51,42.805,6.029,CST-1368DR,9181,12847,15550,0.017,551
2019-06-06T02:15:52,42.805,6.029,CST-1368DR,9182,12847,15548,0.017,551
2019-06-06T02:18:53,42.805,6.029,CST-1368DR,9181,12845,15548,0.017,550
2019-06-06T02:21:55,42.805,6.029,CST-1368DR,9182,12848,15549,0.017,551
2019-06-06T02:24:56,42.805,6.029,CST-1368DR,9182,12850,15551,0.017,551
2019-06-06T02:27:58,42.805,6.029,CST-1368DR,9182,12850,15552,0.016,550
2019-06-06T02:30:59,42.805,6.029,CST-1368DR,9182,12840,15539,0.020,551
2019-06-06T02:34:00,42.805,6.029,CST-1368DR,9182,12849,15551,0.017,551
2019-06-06T02:37:02,42.805,6.029,CST-1368DR,9182,12850,15551,0.017,551
2019-06-06T02:40:03,42.805,6.029,CST-1368DR,9182,12849,15550,0.017,550
2019-06-06T02:43:05,42.805,6.029,CST-1368DR,9182,12849,15551,0.017,550
2019-06-06T02:46:06,42.805,6.029,CST-1368DR,9182,12848,15549,0.017,551
2019-06-06T02:49:07,42.805,6.029,CST-1368DR,9182,12849,15550,0.017,550
2019-06-06T02:52:09,42.805,6.029,CST-1368DR,9182,12848,15550,0.017,551
2019-06-06T02:55:10,42.805,6.029,CST-1368DR,9182,12845,15546,0.018,550
2019-06-06T02:58:12,42.805,6.029,CST-1368DR,9182,12848,15549,0.017,550
2019-06-06T03:01:13,42.805,6.029,CST-1368DR,9182,12848,15549,0.017,551
2019-06-06T03:04:14,42.805,6.029,CST-1368DR,9182,12845,15546,0.018,550
2019-06-06T03:07:16,42.805,6.029,CST-1368DR,9182,12848,15550,0.017,551
2019-06-06T03:10:17,42.805,6.029,CST-1368DR,9182,12845,15546,0.018,551
2019-06-06T03:13:19,42.805,6.029,CST-1368DR,9181,12849,15552,0.016,551
2019-06-06T03:16:20,42.805,6.029,CST-1368DR,9182,12848,15549,0.017,550
2019-06-06T03:19:22,42.805,6.029,CST-1368DR,9181,12846,15549,0.017,551
2019-06-06T03:22:23,42.805,6.029,CST-1368DR,9181,12848,15551,0.017,551
2019-06-06T03:25:24,42.805,6.029,CST-1368DR,9181,12846,15549,0.017,551
2019-06-06T03:28:26,42.805,6.029,CST-1368DR,9181,12849,15552,0.016,551
2019-06-06T03:31:27,42.805,6.029,CST-1368DR,9181,12849,15552,0.016,551
2019-06-06T03:34:29,42.805,6.029,CST-1368DR,9181,12847,15550,0.017,551
2019-06-06T03:37:30,42.805,6.029,CST-1368DR,9181,12848,15551,0.017,551
2019-06-06T03:40:31,42.805,6.029,CST-1368DR,9181,12848,15551,0.017,551
2019-06-06T03:43:33,42.805,6.029,CST-1368DR,9181,12846,15549,0.017,551
2019-06-06T03:46:34,42.805,6.029,CST-1368DR,9181,12849,15553,0.016,551
2019-06-06T03:49:36,42.805,6.029,CST-1368DR,9181,12849,15552,0.016,551
2019-06-06T03:52:37,42.805,6.029,CST-1368DR,9181,12846,15549,0.017,551
2019-06-06T03:55:38,42.805,6.029,CST-1368DR,9181,12847,15550,0.017,551
2019-06-06T03:58:40,42.805,6.029,CST-1368DR,9181,12847,15550,0.017,550
2019-06-06T04:01:41,42.805,6.029,CST-1368DR,9181,12846,15548,0.017,551
2019-06-06T04:04:43,42.805,6.029,CST-1368DR,9181,12847,15550,0.017,551
2019-06-06T04:07:44,42.805,6.029,CST-1368DR,9181,12845,15547,0.018,550
2019-06-06T04:10:46,42.805,6.029,CST-1368DR,9181,12848,15551,0.017,551
2019-06-06T04:13:47,42.805,6.029,CST-1368DR,9181,12848,15550,0.017,550
2019-06-06T04:16:48,42.805,6.029,CST-1368DR,9181,12847,15550,0.017,551
2019-06-06T04:19:50,42.805,6.029,CST-1368DR,9181,12843,15544,0.018,551
2019-06-06T04:22:51,42.805,6.029,CST-1368DR,9181,12846,15549,0.017,551
2019-06-06T04:25:53,42.805,6.029,CST-1368DR,9181,12845,15547,0.018,551
2019-06-06T04:28:54,42.805,6.029,CST-1368DR,9181,12845,15548,0.017,551
2019-06-06T04:31:55,42.805,6.029,CST-1368DR,9181,12846,15548,0.017,551
2019-06-06T04:34:57,42.805,6.029,CST-1368DR,9181,12846,15549,0.017,551
2019-06-06T04:37:58,42.805,6.029,CST-1368DR,9181,12846,15549,0.017,551
2019-06-06T04:41:00,42.805,6.029,CST-1368DR,9181,12847,15549,0.017,551
2019-06-06T04:44:01,42.805,6.029,CST-1368DR,9181,12846,15549,0.017,551
2019-06-06T04:47:02,42.805,6.029,CST-1368DR,9181,12843,15545,0.018,550
2019-06-06T04:50:04,42.805,6.029,CST-1368DR,9180,12846,15550,0.017,551
2019-06-06T04:53:05,42.805,6.029,CST-1368DR,9180,12844,15547,0.018,550
2019-06-06T04:56:07,42.805,6.029,CST-1368DR,9181,12845,15547,0.018,551
2019-06-06T04:59:08,42.805,6.029,CST-1368DR,9181,12848,15551,0.017,551
2019-06-06T05:02:09,42.805,6.029,CST-1368DR,9180,12845,15549,0.017,551
2019-06-06T05:05:11,42.805,6.029,CST-1368DR,9180,12846,15550,0.017,551
2019-06-06T05:08:12,42.805,6.029,CST-1368DR,9180,12847,15551,0.017,551
2019-06-06T05:11:14,42.805,6.029,CST-1368DR,9180,12846,15550,0.017,551
2019-06-06T05:14:15,42.805,6.029,CST-1368DR,9180,12846,15550,0.017,550
2019-06-06T05:17:17,42.805,6.029,CST-1368DR,9180,12847,15551,0.017,551
2019-06-06T05:20:18,42.805,6.029,CST-1368DR,9180,12846,15550,0.017,551
2019-06-06T05:23:19,42.805,6.029,CST-1368DR,9180,12847,15551,0.017,551
2019-06-06T05:26:21,42.805,6.029,CST-1368DR,9180,12846,15550,0.017,551
2019-06-06T05:29:22,42.805,6.029,CST-1368DR,9180,12846,15550,0.017,551
2019-06-06T05:32:24,42.805,6.029,CST-1368DR,9180,12845,15549,0.017,551
2019-06-06T05:35:25,42.805,6.029,CST-1368DR,9180,12847,15551,0.017,551
2019-06-06T05:38:26,42.805,6.029,CST-1368DR,9180,12844,15548,0.017,551
2019-06-06T05:41:28,42.805,6.029,CST-1368DR,9180,12843,15547,0.018,551
2019-06-06T05:44:29,42.805,6.029,CST-1368DR,9180,12847,15551,0.017,551
2019-06-06T05:47:31,42.805,6.029,CST-1368DR,9180,12846,15550,0.017,551
2019-06-06T05:50:32,42.805,6.029,CST-1368DR,9180,12846,15550,0.017,551
2019-06-06T05:53:33,42.805,6.029,CST-1368DR,9180,12847,15551,0.017,551
2019-06-06T05:56:35,42.805,6.029,CST-1368DR,9180,12846,15550,0.017,551
2019-06-06T05:59:36,42.805,6.029,CST-1368DR,9180,12846,15550,0.017,551
2019-06-06T06:02:38,42.805,6.029,CST-1368DR,9180,12844,15548,0.017,551
2019-06-06T06:05:39,42.805,6.029,CST-1368DR,9180,12846,15550,0.017,551
2019-06-06T06:08:41,42.805,6.029,CST-1368DR,9180,12846,15550,0.017,550
2019-06-06T06:11:42,42.805,6.029,CST-1368DR,9180,12845,15549,0.017,551
2019-06-06T06:14:43,42.805,6.029,CST-1368DR,9180,12845,15549,0.017,551
2019-06-06T06:17:45,42.805,6.029,CST-1368DR,9180,12846,15550,0.017,551
2019-06-06T06:20:46,42.805,6.029,CST-1368DR,9180,12846,15550,0.017,551
2019-06-06T06:23:48,42.805,6.029,CST-1368DR,9180,12845,15549,0.017,551
2019-06-06T06:26:49,42.805,6.029,CST-1368DR,9180,12844,15548,0.017,551
2019-06-06T06:29:50,42.805,6.029,CST-1368DR,9179,12845,15551,0.017,551
2019-06-06T06:32:52,42.805,6.029,CST-1368DR,9179,12844,15549,0.017,551
2019-06-06T06:35:53,42.805,6.029,CST-1368DR,9179,12846,15552,0.016,551
2019-06-06T06:38:55,42.805,6.029,CST-1368DR,9179,12844,15549,0.017,551
2019-06-06T06:41:56,42.805,6.029,CST-1368DR,9179,12845,15550,0.017,551
2019-06-06T06:44:57,42.805,6.029,CST-1368DR,9179,12843,15548,0.017,551
2019-06-06T06:47:59,42.805,6.029,CST-1368DR,9179,12846,15552,0.016,551
2019-06-06T06:51:00,42.805,6.029,CST-1368DR,9179,12843,15548,0.017,551
2019-06-06T06:54:02,42.805,6.029,CST-1368DR,9179,12843,15548,0.017,551
2019-06-06T06:57:03,42.805,6.029,CST-1368DR,9179,12844,15550,0.017,550
2019-06-06T07:00:04,42.805,6.029,CST-1368DR,9179,12844,15550,0.017,550
2019-06-06T07:03:06,42.805,6.029,CST-1368DR,9179,12844,15549,0.017,551
2019-06-06T07:06:07,42.805,6.029,CST-1368DR,9179,12844,15549,0.017,551
2019-06-06T07:09:09,42.805,6.029,CST-1368DR,9179,12845,15551,0.017,550
2019-06-06T07:12:10,42.805,6.029,CST-1368DR,9179,12844,15549,0.017,551
2019-06-06T07:15:12,42.805,6.029,CST-1368DR,9179,12844,15550,0.017,551
2019-06-06T07:18:13,42.805,6.029,CST-1368DR,9179,12841,15546,0.018,551
2019-06-06T07:21:14,42.805,6.029,CST-1368DR,9179,12843,15548,0.017,551
2019-06-06T07:24:16,42.805,6.029,CST-1368DR,9179,12843,15548,0.017,551
2019-06-06T07:27:17,42.805,6.029,CST-1368DR,9179,12843,15548,0.017,551
2019-06-06T07:30:19,42.805,6.029,CST-1368DR,9179,12842,15546,0.018,551
2019-06-06T07:33:20,42.805,6.029,CST-1368DR,9178,12841,15547,0.018,551
2019-06-06T07:36:21,42.805,6.029,CST-1368DR,9178,12844,15551,0.017,551
2019-06-06T07:39:23,42.805,6.029,CST-1368DR,9179,12843,15548,0.017,551
2019-06-06T07:42:24,42.805,6.029,CST-1368DR,9178,12842,15549,0.017,551
2019-06-06T07:45:26,42.805,6.029,CST-1368DR,9178,12842,15549,0.017,551
2019-06-06T07:48:27,42.805,6.029,CST-1368DR,9178,12843,15549,0.017,551
2019-06-06T07:51:28,42.805,6.029,CST-1368DR,9178,12845,15552,0.016,550
2019-06-06T07:54:30,42.805,6.029,CST-1368DR,9178,12844,15551,0.017,551
2019-06-06T07:57:31,42.805,6.029,CST-1368DR,9178,12842,15549,0.017,551
2019-06-06T08:00:33,42.805,6.029,CST-1368DR,9178,12843,15550,0.017,551
2019-06-06T08:03:34,42.805,6.029,CST-1368DR,9178,12844,15550,0.017,551
2019-06-06T08:06:35,42.805,6.029,CST-1368DR,9178,12841,15547,0.018,551
2019-06-06T08:09:37,42.805,6.029,CST-1368DR,9178,12844,15551,0.017,551
2019-06-06T08:12:38,42.805,6.029,CST-1368DR,9178,12844,15550,0.017,551
2019-06-06T08:15:40,42.805,6.029,CST-1368DR,9178,12843,15549,0.017,551
2019-06-06T08:18:41,42.805,6.029,CST-1368DR,9178,12843,15549,0.017,550
2019-06-06T08:21:43,42.805,6.029,CST-1368DR,9178,12843,15550,0.017,551
2019-06-06T08:24:44,42.805,6.029,CST-1368DR,9178,12843,15550,0.017,551
2019-06-06T08:27:45,42.805,6.029,CST-1368DR,9178,12840,15546,0.018,551
2019-06-06T08:30:47,42.805,6.029,CST-1368DR,9178,12841,15547,0.018,551
2019-06-06T08:33:48,42.805,6.029,CST-1368DR,9178,12844,15551,0.017,551
2019-06-06T08:36:50,42.805,6.029,CST-1368DR,9178,12842,15548,0.017,551
2019-06-06T08:39:51,42.805,6.029,CST-1368DR,9178,12842,15548,0.017,551
2019-06-06T08:42:52,42.805,6.029,CST-1368DR,9178,12841,15547,0.018,551
2019-06-06T08:45:54,42.805,6.029,CST-1368DR,9178,12843,15549,0.017,551
2019-06-06T08:48:55,42.805,6.029,CST-1368DR,9178,12843,15549,0.017,551
2019-06-06T08:51:57,42.805,6.029,CST-1368DR,9178,12842,15548,0.017,551
2019-06-06T08:54:58,42.805,6.029,CST-1368DR,9178,12844,15550,0.017,551
2019-06-06T08:57:59,42.805,6.029,CST-1368DR,9178,12842,15548,0.017,551
2019-06-06T09:01:01,42.805,6.029,CST-1368DR,9178,12840,15546,0.018,551
2019-06-06T09:04:02,42.805,6.029,CST-1368DR,9178,12838,15544,0.018,551
2019-06-06T09:07:04,42.805,6.029,CST-1368DR,9178,12843,15549,0.017,550
2019-06-06T09:10:05,42.805,6.029,CST-1368DR,9178,12842,15549,0.017,551
2019-06-06T09:13:06,42.805,6.029,CST-1368DR,9178,12840,15546,0.018,550
2019-06-06T09:16:08,42.805,6.029,CST-1368DR,9177,12842,15549,0.017,550
2019-06-06T09:19:09,42.805,6.029,CST-1368DR,9177,12842,15550,0.017,551
2019-06-06T09:22:11,42.805,6.029,CST-1368DR,9177,12840,15547,0.018,550
2019-06-06T09:25:12,42.805,6.029,CST-1368DR,9177,12842,15549,0.017,551
2019-06-06T09:28:14,42.805,6.029,CST-1368DR,9177,12841,15548,0.017,551
2019-06-06T09:31:15,42.805,6.029,CST-1368DR,9177,12842,15550,0.017,551
2019-06-06T09:34:16,42.805,6.029,CST-1368DR,9177,12840,15548,0.017,551
2019-06-06T09:37:18,42.805,6.029,CST-1368DR,9177,12843,15551,0.017,551
2019-06-06T09:40:19,42.805,6.029,CST-1368DR,9177,12836,15543,0.019,551
2019-06-06T09:43:21,42.805,6.029,CST-1368DR,9177,12842,15550,0.017,551
2019-06-06T09:46:22,42.805,6.029,CST-1368DR,9177,12842,15550,0.017,551
2019-06-06T09:49:23,42.805,6.029,CST-1368DR,9177,12841,15548,0.017,551
2019-06-06T09:52:25,42.805,6.029,CST-1368DR,9177,12841,15548,0.017,551
2019-06-06T09:55:26,42.805,6.029,CST-1368DR,9177,12842,15550,0.017,551
2019-06-06T09:58:28,42.805,6.029,CST-1368DR,9177,12842,15549,0.017,551
2019-06-06T10:01:29,42.805,6.029,CST-1368DR,9177,12841,15548,0.017,551
2019-06-06T10:04:30,42.805,6.029,CST-1368DR,9177,12841,15548,0.017,551
2019-06-06T10:07:32,42.805,6.029,CST-1368DR,9177,12840,15547,0.018,550
2019-06-06T10:10:33,42.805,6.029,CST-1368DR,9177,12842,15549,0.017,551
2019-06-06T10:13:35,42.805,6.029,CST-1368DR,9177,12839,15546,0.018,551
2019-06-06T10:16:36,42.805,6.029,CST-1368DR,9177,12841,15549,0.017,551
2019-06-06T10:19:38,42.805,6.029,CST-1368DR,9177,12842,15549,0.017,551
2019-06-06T10:22:39,42.805,6.029,CST-1368DR,9177,12840,15548,0.017,551
2019-06-06T10:25:40,42.805,6.029,CST-1368DR,9177,12839,15546,0.018,551
2019-06-06T10:28:42,42.805,6.029,CST-1368DR,9177,12839,15546,0.018,550
2019-06-06T10:31:43,42.805,6.029,CST-1368DR,9177,12841,15549,0.017,551
2019-06-06T10:34:45,42.805,6.029,CST-1368DR,9177,12839,15546,0.018,551
2019-06-06T10:37:46,42.805,6.029,CST-1368DR,9177,12840,15547,0.018,551
2019-06-06T10:40:47,42.805,6.029,CST-1368DR,9177,12841,15548,0.017,551
2019-06-06T10:43:49,42.805,6.029,CST-1368DR,9177,12840,15548,0.017,550
2019-06-06T10:46:50,42.805,6.029,CST-1368DR,9177,12839,15547,0.018,551
2019-06-06T10:49:52,42.805,6.029,CST-1368DR,9177,12837,15544,0.018,551
2019-06-06T10:52:53,42.805,6.029,CST-1368DR,9177,12839,15546,0.018,551
2019-06-06T10:55:54,42.805,6.029,CST-1368DR,9177,12839,15546,0.018,551
2019-06-06T10:58:56,42.805,6.029,CST-1368DR,9177,12840,15547,0.018,551
2019-06-06T11:01:57,42.805,6.029,CST-1368DR,9176,12837,15545,0.018,551
2019-06-06T11:04:59,42.805,6.029,CST-1368DR,9177,12840,15547,0.018,551
2019-06-06T11:08:00,42.805,6.029,CST-1368DR,9176,12839,15548,0.017,551
2019-06-06T11:11:01,42.805,6.029,CST-1368DR,9176,12839,15548,0.017,550
2019-06-06T11:14:03,42.805,6.029,CST-1368DR,9176,12839,15548,0.017,551
2019-06-06T11:17:04,42.805,6.029,CST-1368DR,9176,12840,15549,0.017,551
2019-06-06T11:20:06,42.805,6.029,CST-1368DR,9176,12838,15547,0.018,550
2019-06-06T11:23:07,42.805,6.029,CST-1368DR,9176,12838,15547,0.018,551
2019-06-06T11:26:09,42.805,6.029,CST-1368DR,9176,12838,15547,0.018,551
2019-06-06T11:29:10,42.805,6.029,CST-1368DR,9176,12840,15549,0.017,551
2019-06-06T11:32:11,42.805,6.029,CST-1368DR,9176,12839,15548,0.017,551
2019-06-06T11:35:13,42.805,6.029,CST-1368DR,9176,12839,15547,0.018,551
2019-06-06T11:38:14,42.805,6.029,CST-1368DR,9176,12840,15549,0.017,551
2019-06-06T11:41:16,42.805,6.029,CST-1368DR,9176,12840,15549,0.017,551
2019-06-06T11:44:17,42.805,6.029,CST-1368DR,9176,12839,15547,0.018,551
2019-06-06T11:47:18,42.805,6.029,CST-1368DR,9176,12839,15548,0.017,551
2019-06-06T11:50:20,42.805,6.029,CST-1368DR,9176,12840,15549,0.017,550
2019-06-06T11:53:21,42.805,6.029,CST-1368DR,9176,12840,15549,0.017,551
2019-06-06T11:56:23,42.805,6.029,CST-1368DR,9176,12840,15549,0.017,550
2019-06-06T11:59:24,42.805,6.029,CST-1368DR,9176,12839,15547,0.018,551
2019-06-06T12:02:25,42.805,6.029,CST-1368DR,9176,12840,15549,0.017,551
2019-06-06T12:05:27,42.805,6.029,CST-1368DR,9176,12840,15549,0.017,551
2019-06-06T12:08:28,42.805,6.029,CST-1368DR,9176,12838,15546,0.018,551
2019-06-06T12:11:30,42.805,6.029,CST-1368DR,9176,12838,15546,0.018,551
2019-06-06T12:14:31,42.805,6.029,CST-1368DR,9176,12834,15542,0.019,551
2019-06-06T12:17:32,42.805,6.029,CST-1368DR,9176,12839,15547,0.018,551
2019-06-06T12:20:34,42.805,6.029,CST-1368DR,9176,12838,15547,0.018,551
2019-06-06T12:23:35,42.805,6.029,CST-1368DR,9176,12840,15549,0.017,551
2019-06-06T12:26:37,42.805,6.029,CST-1368DR,9176,12839,15548,0.017,551
2019-06-06T12:29:38,42.805,6.029,CST-1368DR,9176,12836,15545,0.018,551
2019-06-06T12:32:40,42.805,6.029,CST-1368DR,9176,12839,15548,0.017,551
2019-06-06T12:35:41,42.805,6.029,CST-1368DR,9176,12838,15547,0.018,551
2019-06-06T12:38:42,42.805,6.029,CST-1368DR,9176,12837,15546,0.018,551
2019-06-06T12:41:44,42.805,6.029,CST-1368DR,9176,12840,15549,0.017,551
2019-06-06T12:44:45,42.805,6.029,CST-1368DR,9175,12838,15548,0.017,551
2019-06-06T12:47:47,42.805,6.029,CST-1368DR,9175,12839,15549,0.017,551
2019-06-06T12:50:48,42.805,6.029,CST-1368DR,9175,12840,15550,0.017,551
2019-06-06T12:53:49,42.805,6.029,CST-1368DR,9175,12838,15548,0.017,551
2019-06-06T12:56:51,42.805,6.029,CST-1368DR,9175,12833,15542,0.019,551
2019-06-06T12:59:52,42.805,6.029,CST-1368DR,9175,12837,15546,0.018,551
2019-06-06T13:02:54,42.805,6.029,CST-1368DR,9175,12839,15549,0.017,551
2019-06-06T13:05:55,42.805,6.029,CST-1368DR,9175,12839,15549,0.017,551
2019-06-06T13:08:56,42.805,6.029,CST-1368DR,9175,12837,15547,0.018,551
2019-06-06T13:11:58,42.805,6.029,CST-1368DR,9175,12839,15549,0.017,551
2019-06-06T13:14:59,42.805,6.029,CST-1368DR,9175,12839,15549,0.017,551
2019-06-06T13:18:01,42.805,6.029,CST-1368DR,9175,12837,15547,0.018,550
2019-06-06T13:21:02,42.805,6.029,CST-1368DR,9175,12839,15549,0.017,551
2019-06-06T13:24:03,42.805,6.029,CST-1368DR,9175,12838,15548,0.017,551
2019-06-06T13:27:05,42.805,6.029,CST-1368DR,9175,12835,15544,0.018,550
2019-06-06T13:30:06,42.805,6.029,CST-1368DR,9175,12837,15547,0.018,551
2019-06-06T13:33:08,42.805,6.029,CST-1368DR,9175,12833,15542,0.019,551
2019-06-06T13:36:09,42.805,6.029,CST-1368DR,9175,12836,15546,0.018,551
2019-06-06T13:39:11,42.805,6.029,CST-1368DR,9175,12837,15547,0.018,551
2019-06-06T13:42:12,42.805,6.029,CST-1368DR,9175,12835,15544,0.018,550
2019-06-06T13:45:13,42.805,6.029,CST-1368DR,9175,12837,15546,0.018,551
2019-06-06T13:48:15,42.805,6.029,CST-1368DR,9175,12838,15548,0.017,551
2019-06-06T13:51:16,42.805,6.029,CST-1368DR,9175,12837,15547,0.018,551
2019-06-06T13:54:18,42.805,6.029,CST-1368DR,9175,12839,15549,0.017,551
2019-06-06T13:57:19,42.805,6.029,CST-1368DR,9175,12839,15549,0.017,551
2019-06-06T14:00:20,42.805,6.029,CST-1368DR,9175,12838,15549,0.017,551
2019-06-06T14:03:22,42.805,6.029,CST-1368DR,9175,12836,15546,0.018,551
2019-06-06T14:06:23,42.805,6.029,CST-1368DR,9175,12838,15548,0.017,551
2019-06-06T14:09:25,42.805,6.029,CST-1368DR,9175,12836,15546,0.018,551
2019-06-06T14:12:26,42.805,6.029,CST-1368DR,9175,12833,15542,0.019,551
2019-06-06T14:15:27,42.805,6.029,CST-1368DR,9175,12837,15547,0.018,551
2019-06-06T14:18:29,42.805,6.029,CST-1368DR,9175,12838,15548,0.017,551
2019-06-06T14:21:30,42.805,6.029,CST-1368DR,9174,12836,15547,0.018,551
2019-06-06T14:24:32,42.805,6.029,CST-1368DR,9174,12836,15547,0.018,551
2019-06-06T14:27:33,42.805,6.029,CST-1368DR,9174,12838,15550,0.017,551
2019-06-06T14:30:34,42.805,6.029,CST-1368DR,9175,12835,15544,0.018,551
2019-06-06T14:33:36,42.805,6.029,CST-1368DR,9174,12838,15549,0.017,550
2019-06-06T14:36:37,42.805,6.029,CST-1368DR,9174,12836,15547,0.018,551
2019-06-06T14:39:39,42.805,6.029,CST-1368DR,9174,12835,15546,0.018,551
2019-06-06T14:42:40,42.805,6.029,CST-1368DR,9174,12838,15550,0.017,551
2019-06-06T14:45:42,42.805,6.029,CST-1368DR,9174,12836,15547,0.018,551
2019-06-06T14:48:43,42.805,6.029,CST-1368DR,9174,12837,15548,0.017,551
2019-06-06T14:51:44,42.805,6.029,CST-1368DR,9174,12836,15548,0.017,551
2019-06-06T14:54:46,42.805,6.029,CST-1368DR,9174,12837,15548,0.017,551
2019-06-06T14:57:47,42.805,6.029,CST-1368DR,9174,12838,15550,0.017,551
2019-06-06T15:00:49,42.805,6.029,CST-1368DR,9174,12837,15548,0.017,550
2019-06-06T15:03:50,42.805,6.029,CST-1368DR,9174,12836,15548,0.017,551
2019-06-06T15:06:51,42.805,6.029,CST-1368DR,9174,12837,15548,0.017,551
2019-06-06T15:09:53,42.805,6.029,CST-1368DR,9174,12837,15548,0.017,551
2019-06-06T15:12:54,42.805,6.029,CST-1368DR,9174,12836,15547,0.018,551
2019-06-06T15:15:56,42.805,6.029,CST-1368DR,9174,12836,15547,0.018,551
2019-06-06T15:18:57,42.805,6.029,CST-1368DR,9174,12837,15548,0.017,551
2019-06-06T15:21:58,42.805,6.029,CST-1368DR,9174,12837,15549,0.017,550
2019-06-06T15:25:00,42.805,6.029,CST-1368DR,9174,12831,15542,0.019,551
2019-06-06T15:28:01,42.805,6.029,CST-1368DR,9174,12836,15547,0.018,551
2019-06-06T15:31:03,42.805,6.029,CST-1368DR,9174,12830,15540,0.020,551
2019-06-06T15:34:04,42.805,6.029,CST-1368DR,9174,12834,15545,0.018,551
2019-06-06T15:37:06,42.805,6.029,CST-1368DR,9174,12833,15544,0.018,550
2019-06-06T15:40:07,42.805,6.029,CST-1368DR,9174,12834,15545,0.018,551
2019-06-06T15:43:08,42.805,6.029,CST-1368DR,9174,12835,15546,0.018,551
2019-06-06T15:46:10,42.805,6.029,CST-1368DR,9174,12833,15543,0.019,551
2019-06-06T15:49:11,42.805,6.029,CST-1368DR,9174,12836,15547,0.018,551
2019-06-06T15:52:13,42.805,6.029,CST-1368DR,9174,12834,15545,0.018,551
2019-06-06T15:55:14,42.805,6.029,CST-1368DR,9173,12835,15547,0.018,551
2019-06-06T15:58:15,42.805,6.029,CST-1368DR,9174,12834,15544,0.018,550
2019-06-06T16:01:17,42.805,6.029,CST-1368DR,9173,12835,15548,0.017,550
2019-06-06T16:04:18,42.805,6.029,CST-1368DR,9173,12836,15548,0.017,551
2019-06-06T16:07:20,42.805,6.029,CST-1368DR,9174,12836,15547,0.018,551
2019-06-06T16:10:21,42.805,6.029,CST-1368DR,9174,12836,15547,0.018,550
2019-06-06T16:13:22,42.805,6.029,CST-1368DR,9173,12837,15550,0.017,551
2019-06-06T16:16:24,42.805,6.029,CST-1368DR,9174,12836,15547,0.018,551
2019-06-06T16:19:25,42.805,6.029,CST-1368DR,9173,12835,15548,0.017,551
2019-06-06T16:22:27,42.805,6.029,CST-1368DR,9173,12832,15544,0.018,551
2019-06-06T16:25:28,42.805,6.029,CST-1368DR,9173,12830,15542,0.019,551
2019-06-06T16:28:29,42.805,6.029,CST-1368DR,9173,12834,15547,0.018,551
2019-06-06T16:31:31,42.805,6.029,CST-1368DR,9173,12836,15548,0.017,551
2019-06-06T16:34:32,42.805,6.029,CST-1368DR,9173,12833,15545,0.018,550
2019-06-06T16:37:34,42.805,6.029,CST-1368DR,9173,12834,15546,0.018,551